Preview of NWS' New Version of Forecast
This preview is not operational and should not be used for support decisions.

Regional Weather Roundup (RWR)

Issued by National Weather Service (NWS)

                            
000
ASUS45 KBOU 171410
RWRCO 

WEATHER ROUNDUP FOR COLORADO
NATIONAL WEATHER SERVICE DENVER/BOULDER CO
800 AM MDT WED APR 17 2019

NOTE: "FAIR" INDICATES FEW OR NO CLOUDS BELOW 12000 FEET WITH NO
SIGNIFICANT WEATHER AND/OR OBSTRUCTIONS TO VISIBILITY.

COZ001>005-013-030-031-171500-
...NORTHWEST COLORADO...
  
CITY           SKY/WX    TMP DP  RH WIND       PRES   REMARKS
CRAIG          CLOUDY    40  35  83 SW7       30.07R                  
HAYDEN         CLOUDY    37  32  82 SW7       30.08R                  
MEEKER         LGT RAIN  38  32  79 CALM      30.08R                  
RANGELY        CLOUDY    42  36  78 CALM      30.07R                  
RABBIT EARS PA HVY SNOW  27  27 100 W8        30.09R VSB<1/4 WCI  18  
STEAMBOAT SPGS CLOUDY    35  34  94 S3        30.07R                  
WALDEN         CLOUDY    34  30  86 N5        30.06R WCI  30          
$$

COZ006>008-011-171500-
...WEST CENTRAL VALLEYS...
  
CITY           SKY/WX    TMP DP  RH WIND       PRES   REMARKS
GRAND JUNCTION CLOUDY    47  42  83 W5        30.01R                  
MONTROSE       CLOUDY    45  35  68 MISG      30.03R                  
EAGLE          LGT RAIN  39  31  72 CALM      30.06R                  
RIFLE          CLOUDY    47  31  53 NW12      30.02R                  
DELTA          CLOUDY    47  36  65 CALM      30.00R                  
NUCLA          PTSUNNY   43  34  70 CALM      30.04R                  
$$

COZ017>023-064>068-171500-
...SOUTHWEST COLORADO...
  
CITY           SKY/WX    TMP DP  RH WIND       PRES   REMARKS
DURANGO        FAIR      35  28  75 CALM      29.94R                  
CORTEZ         CLOUDY    43  34  70 NE3       29.97R                  
PAGOSA SPRINGS CLOUDY    37  29  73 CALM      29.96R                  
TELLURIDE      FAIR      32  27  80 CALM      30.06R                  
WOLF CREEK PAS FAIR      27  19  74 N10G17    30.12S WCI  17          
$$

COZ009-010-012-014-032>034-037-058>063-171500-
...CENTRAL COLORADO...
  
CITY           SKY/WX    TMP DP  RH WIND       PRES   REMARKS
ASPEN          CLOUDY    37  31  78 S5        30.03R                  
BUENA VISTA    FAIR      40  25  54 NW6       30.01S                  
COPPER MTN     LGT SNOW  28  25  86 MISG      30.11R                  
BERTHOUD PASS  CLOUDY    21  10  63 N16G23    30.11R WCI   7          
COTTONWOOD PAS PTSUNNY   36  21  55 W6        30.05S                  
GUNNISON       FAIR      34  26  72 N6        30.04R WCI  29          
GRANBY         FLURRIES  35  32  91 CALM      30.05R                  
KREMMLING      DRIZZLE   36  32  87 CALM      30.06R                  
LEADVILLE      CLOUDY    31  26  82 NE3       30.05R                  
MONARCH PASS   FAIR      27  18  69 N9        30.20S WCI  17          
SALIDA         FAIR      37  23  57 CALM      30.09R                  
SUNLIGHT       FOG       28  27  93 CALM      30.13R VSB<1/4          
WILKERSON PASS FAIR      30  18  59 NW8       30.10S WCI  23          
$$

COZ069>075-171500-
...SAN LUIS VALLEY/SANGRE DE CRISTO MOUNTAINS...
  
CITY           SKY/WX    TMP DP  RH WIND       PRES   REMARKS
ALAMOSA        CLOUDY    40  22  48 N8        29.97R                  
DEL NORTE      FAIR      36  23  60 W9        30.00S                  
LA VETA PASS   NOT AVBL                                               
SAGUACHE       FAIR      39  25  56 CALM      29.98S                  
$$

COZ035-036-038>040-171500-
...NORTHERN COLORADO FRONT RANGE...
  
CITY           SKY/WX    TMP DP  RH WIND       PRES   REMARKS
DENVER INTL AP PTSUNNY   45  39  79 N16G22    29.95R                  
AURORA         PTSUNNY   47  38  72 NE17G23   29.96R                  
FRONT RANGE AP PTSUNNY   46  41  81 N14       29.95R                  
ERIE MUNI ARPT PTSUNNY   48  38  67 E13G20    30.00R                  
BOULDER MUN AP CLOUDY    48  37  66 NE5       29.96R                  
CENTENNIAL     PTSUNNY   45  37  73 E10       29.95R                  
BROOMFIELD     PTSUNNY   46  39  76 N9        29.95R                  
FORT COLLINS   CLOUDY    48  39  71 N8        29.96R                  
LONGMONT       PTSUNNY   48  41  76 CALM      29.98R                  
$$

COZ041-046-047-076>085-087-088-171500-
...PIKES PEAK/PALMER DIVIDE AND SOUTHERN FOOTHILLS...
  
CITY           SKY/WX    TMP DP  RH WIND       PRES   REMARKS
COLO. SPRINGS  PTSUNNY   53  34  48 N10       29.93R                  
A. F. ACADEMY  FAIR      48  34  58 N8        29.92R                  
SCHRIEVER AFB  NOT AVBL                                               
CHEYENNE MTN   FAIR      51  30  43 N5        29.90R                  
ELLICOTT         N/A    N/A N/A N/A NE18      29.90R                  
FALCON         NOT AVBL                                               
FORT CARSON    FAIR      52  33  48 N6        29.92R                  
LIMON          FAIR      47  39  74 N28G40    29.91R                  
MONUMENT HILL  FAIR      43  36  75 N7        29.98R                  
CANON CITY     FAIR      54  28  37 SW9       29.90S                  
WALSENBURG     NOT AVBL                                               
TRINIDAD       FAIR      51  30  44 W3        29.94R                  
$$

COZ042>045-048>051-090-091-171500-
...NORTHEAST COLORADO...
  
CITY           SKY/WX    TMP DP  RH WIND       PRES   REMARKS
GREELEY ARPT   FAIR      48  39  71 N20G29    29.95R                  
AKRON          NOT AVBL                                               
BURLINGTON     FAIR      53  42  66 N22G29    29.84R                  
WRAY           FAIR      52  43  71 N25G33    29.85R                  
YUMA           NOT AVBL                                               
STERLING       PTSUNNY   45  41  87 N14       29.90R                  
HOLYOKE        FAIR      52  43  71 NW24G31   29.86R                  
FORT MORGAN      N/A     47  37  68 N25G33    29.94R                  
$$

COZ086-089-092>099-171500-
...SOUTHEAST COLORADO...
  
CITY           SKY/WX    TMP DP  RH WIND       PRES   REMARKS
PUEBLO         FAIR      57  37  47 N9        29.89R                  
LA JUNTA       FAIR      57  41  55 N9        29.87R                  
LAMAR          FAIR      56  45  66 N13G20    29.82R                  
SPRINGFIELD      N/A     54  45  71 N16       29.84R                  
$$